sat.trackr.live / text

‹ back to catalog

JUGNU

NORAD 37839 · 2011-058B

PAYLOAD ACTIVE UNKNOWN

§ Identity

Operator
Country
IND
Launch date
2011-10-12
Launch site
SRILR
Launch vehicle
Mass (kg)
RCS (m²)
0.15

Purposes: comms

External: N2YO · Heavens-Above · Gunter

§ Orbital elements

Epoch: 2026-09-13T00:59:49.753248Z

Period
101.85 min
Inclination
19.9598°
Eccentricity
0.0018455
Mean motion
14.13797681 rev/d
Perigee alt
833.1 km
Apogee alt
859.7 km
Semi-major
7,224.5 km
B*
7.1691e-5
RAAN
134.6653°
Arg perigee
326.7963°
Mean anomaly
174.0758°
Rev number
77,147

§ Raw data

JUGNU1 37839U 11058B   26256.04154807  .00000404  00000+0  71691-4 0  99902 37839  19.9598 134.6653 0018455 326.7963 174.0758 14.13797681771475

JSON: /api/v1/satellites/37839 · /tle

For live sub-satellite position, see the globe view (requires WebGL).

§ Visibility from observer

Set your observer location to see the next 7 days of passes ≥ 10°. The values pass through the URL so the page stays shareable.

No JS? Fill the form by hand. The geolocation button needs JavaScript.

§ Radio — SatNOGS DB

ModeDescriptionDownlinkUplink
CW CW Beacon 437.275 MHz
FSK TLM 437.505 MHz

2 transmitters · refreshed weekly from db.satnogs.org